BIPCOM Weather Reports


Display with metric or nautical units.
time (UTC)temp
F
wind
direction
speed
MPH
gust
MPH
rain 1hr
in
rain 24hr
in
rain mn
in
humidity
%
barometer
mb
20260506021005 54 56 12.0 16.0 0.00 0.00 0.00 78 1010.5
20260506020557 54 55 12.0 16.0 0.00 0.00 0.00 78 1010.5
20260506020048 54 52 13.0 16.0 0.00 0.00 0.00 78 1010.5
20260506015538 54 55 13.0 16.0 0.00 0.00 0.00 78 1010.5
20260506015031 54 51 13.0 16.0 0.00 0.00 0.00 78 1010.4
20260506014525 54 40 13.0 17.0 0.00 0.00 0.00 78 1010.4
20260506014109 54 29 14.0 17.0 0.00 0.00 0.00 78 1010.4
20260506013548 54 42 14.0 17.0 0.00 0.00 0.00 77 1010.5
20260506013041 54 23 13.0 17.0 0.00 0.00 0.00 77 1010.5
20260506012529 54 28 14.0 17.0 0.00 0.00 0.00 77 1010.5
20260506012017 54 16 15.0 18.0 0.00 0.00 0.00 77 1010.5
20260506011513 54 18 15.0 18.0 0.00 0.00 0.00 76 1010.5
20260506011100 54 12 15.0 20.0 0.00 0.00 0.00 76 1010.5
20260506010550 54 11 16.0 20.0 0.00 0.00 0.00 76 1010.4
20260506010050 54 16 16.0 21.0 0.00 0.00 0.00 76 1010.5
20260506005529 54 19 15.0 19.0 0.00 0.00 0.00 76 1010.4
20260506005019 54 360 16.0 19.0 0.00 0.00 0.00 76 1010.4
20260506004523 54 15 14.0 18.0 0.00 0.00 0.00 75 1010.5
20260506004101 54 9 13.0 18.0 0.00 0.00 0.00 75 1010.5
20260506003540 54 5 13.0 17.0 0.00 0.00 0.00 75 1010.5
20260506003041 54 5 13.0 17.0 0.00 0.00 0.00 75 1010.5
20260506002520 54 350 14.0 17.0 0.00 0.00 0.00 75 1010.5
20260506002011 54 350 13.0 17.0 0.00 0.00 0.00 75 1010.5
20260506001602 54 355 13.0 17.0 0.00 0.00 0.00 75 1010.5
20260506001052 54 360 14.0 18.0 0.00 0.00 0.00 75 1010.5
20260506000541 54 345 15.0 17.0 0.00 0.00 0.00 75 1010.5
20260506000031 54 355 14.0 18.0 0.00 0.00 0.00 75 1010.5
20260505235520 54 350 15.0 18.0 0.00 0.00 0.00 74 1010.4
20260505235010 54 349 14.0 19.0 0.00 0.00 0.00 74 1010.5
20260505234637 54 355 15.0 19.0 0.00 0.00 0.00 74 1010.4
20260505234052 54 350 15.0 20.0 0.00 0.00 0.00 74 1010.4
20260505233532 54 348 17.0 20.0 0.00 0.00 0.00 74 1010.4
20260505233020 54 355 17.0 21.0 0.00 0.00 0.00 74 1010.5
20260505232510 54 343 17.0 20.0 0.00 0.00 0.00 73 1010.5
20260505232103 54 346 17.0 20.0 0.00 0.00 0.00 73 1010.4
20260505231553 54 355 16.0 20.0 0.00 0.00 0.00 74 1010.4
20260505231042 54 338 17.0 20.0 0.00 0.00 0.00 73 1010.5
20260505230533 54 340 16.0 21.0 0.00 0.00 0.00 73 1010.5
20260505230025 54 338 17.0 23.0 0.00 0.00 0.00 73 1010.6
20260505225514 54 335 18.0 23.0 0.00 0.00 0.00 72 1010.5
20260505225002 54 343 17.0 20.0 0.00 0.00 0.00 73 1010.5
20260505224554 54 346 17.0 21.0 0.00 0.00 0.00 72 1010.6
20260505224043 54 338 17.0 21.0 0.00 0.00 0.00 72 1010.5
20260505223521 54 346 17.0 20.0 0.00 0.00 0.00 72 1010.5
20260505223011 54 333 17.0 20.0 0.00 0.00 0.00 72 1010.5
20260505222503 55 338 17.0 20.0 0.00 0.00 0.00 72 1010.6
20260505222050 55 340 17.0 20.0 0.00 0.00 0.00 72 1010.5
20260505221540 55 339 17.0 19.0 0.00 0.00 0.00 72 1010.6
20260505221030 55 334 15.0 19.0 0.00 0.00 0.00 71 1010.6
20260505220520 55 339 16.0 19.0 0.00 0.00 0.00 71 1010.6
20260505220021 55 333 16.0 18.0 0.00 0.00 0.00 71 1010.7
20260505215602 55 338 16.0 18.0 0.00 0.00 0.00 71 1010.7
20260505215052 55 333 15.0 17.0 0.00 0.00 0.00 71 1010.6
20260505214542 56 332 15.0 18.0 0.00 0.00 0.00 70 1010.6
20260505214035 56 330 14.0 16.0 0.00 0.00 0.00 69 1010.6
20260505213510 56 336 13.0 17.0 0.00 0.00 0.00 70 1010.7
20260505213105 56 342 14.0 19.0 0.00 0.00 0.00 69 1010.7
20260505212552 56 355 16.0 20.0 0.00 0.00 0.00 67 1010.7
20260505212042 56 344 16.0 20.0 0.00 0.00 0.00 68 1010.6
20260505211537 56 344 16.0 19.0 0.00 0.00 0.00 69 1010.6
20260505211022 57 342 13.0 16.0 0.00 0.00 0.00 69 1010.6
20260505210512 57 346 12.0 16.0 0.00 0.00 0.00 69 1010.6
20260505210002 57 350 12.0 15.0 0.00 0.00 0.00 68 1010.6
20260505205556 57 5 12.0 17.0 0.00 0.00 0.00 68 1010.6
20260505205043 57 355 14.0 17.0 0.00 0.00 0.00 68 1010.5
20260505204535 57 355 13.0 16.0 0.00 0.00 0.00 67 1010.5
20260505204012 57 5 12.0 16.0 0.00 0.00 0.00 67 1010.6
20260505203502 57 355 12.0 17.0 0.00 0.00 0.00 67 1010.5
20260505203055 57 360 14.0 18.0 0.00 0.00 0.00 67 1010.5
20260505202543 57 346 15.0 18.0 0.00 0.00 0.00 67 1010.4
20260505202034 57 355 13.0 19.0 0.00 0.00 0.00 66 1010.4
20260505201525 57 355 15.0 20.0 0.00 0.00 0.00 67 1010.4
20260505201013 57 360 17.0 20.0 0.00 0.00 0.00 66 1010.4
20260505200503 57 360 16.0 20.0 0.00 0.00 0.00 67 1010.4
20260505200057 58 360 16.0 20.0 0.00 0.00 0.00 66 1010.3
20260505195543 58 360 16.0 19.0 0.00 0.00 0.00 66 1010.2
20260505195034 58 360 15.0 23.0 0.00 0.00 0.00 66 1010.2
20260505194532 58 5 17.0 23.0 0.00 0.00 0.00 65 1010.2
20260505194004 58 5 19.0 20.0 0.00 0.00 0.00 66 1010.1
20260505193555 58 10 14.0 17.0 0.00 0.00 0.00 67 1010.1
20260505193048 58 360 12.0 15.0 0.00 0.00 0.00 67 1010.1
20260505192534 58 360 12.0 15.0 0.00 0.00 0.00 66 1010.1
20260505192024 58 355 10.0 13.0 0.00 0.00 0.00 68 1010.1
20260505191514 58 355 11.0 16.0 0.00 0.00 0.00 67 1010.1
20260505191004 58 360 13.0 18.0 0.00 0.00 0.00 66 1010.0
20260505190556 58 9 14.0 18.0 0.00 0.00 0.00 66 1009.9
20260505190046 58 5 13.0 17.0 0.00 0.00 0.00 69 1009.9
20260505185536 58 5 14.0 19.0 0.00 0.00 0.00 67 1009.9
20260505185026 58 360 15.0 19.0 0.00 0.00 0.00 66 1009.8
20260505184516 58 360 15.0 17.0 0.00 0.00 0.00 66 1009.8
20260505184108 58 5 15.0 17.0 0.00 0.00 0.00 66 1009.8
20260505183548 58 16 13.0 16.0 0.00 0.00 0.00 69 1009.8
20260505183036 58 10 10.0 13.0 0.00 0.00 0.00 70 1009.9
20260505182526 58 15 11.0 13.0 0.00 0.00 0.00 68 1009.8
20260505182018 58 360 10.0 14.0 0.00 0.00 0.00 67 1009.8
20260505181506 58 355 11.0 14.0 0.00 0.00 0.00 66 1009.7
20260505181100 58 5 11.0 14.0 0.00 0.00 0.00 67 1009.7
20260505180548 58 360 11.0 14.0 0.00 0.00 0.00 67 1009.7
20260505180048 58 5 11.0 14.0 0.00 0.00 0.00 68 1009.8
20260505175528 58 5 11.0 13.0 0.00 0.00 0.00 69 1009.7
20260505175018 58 11 11.0 14.0 0.00 0.00 0.00 69 1009.7
20260505174515 58 13 12.0 13.0 0.00 0.00 0.00 69 1009.8
20260505174059 58 9 11.0 13.0 0.00 0.00 0.00 69 1009.8
20260505173538 58 15 11.0 15.0 0.00 0.00 0.00 69 1009.8
20260505173029 58 5 12.0 15.0 0.00 0.00 0.00 69 1009.8
20260505172518 58 360 11.0 14.0 0.00 0.00 0.00 69 1009.8
20260505172008 58 5 11.0 14.0 0.00 0.00 0.00 68 1009.9
20260505171600 58 9 11.0 13.0 0.00 0.00 0.00 70 1009.9
20260505171050 58 5 11.0 13.0 0.00 0.00 0.00 71 1009.9
20260505170539 58 15 10.0 12.0 0.00 0.00 0.00 73 1010.0
20260505170032 57 12 7.0 9.0 0.00 0.00 0.00 75 1010.0
20260505165523 58 11 7.0 9.0 0.00 0.00 0.00 75 1010.1
20260505165010 58 19 8.0 9.0 0.00 0.00 0.00 74 1010.1
20260505164602 58 19 8.0 10.0 0.00 0.00 0.00 74 1010.0
20260505164055 58 19 8.0 11.0 0.00 0.00 0.00 74 1010.1
20260505163531 58 22 9.0 11.0 0.00 0.00 0.00 74 1010.0
20260505163022 58 20 9.0 12.0 0.00 0.00 0.00 74 1010.0
20260505162510 58 17 11.0 13.0 0.00 0.00 0.00 73 1010.0
20260505162103 58 20 11.0 13.0 0.00 0.00 0.00 72 1010.0
20260505161601 58 32 11.0 14.0 0.00 0.00 0.00 70 1010.0
20260505161042 58 11 11.0 16.0 0.00 0.00 0.00 67 1010.0
20260505160533 58 10 14.0 16.0 0.00 0.00 0.00 67 1009.9
20260505153011 58 5 10.0 14.0 0.00 0.00 0.00 65 1010.1
20260505152500 58 5 11.0 13.0 0.00 0.00 0.00 67 1010.1
20260505152052 58 13 11.0 15.0 0.00 0.00 0.00 68 1010.2
20260505151549 58 9 11.0 18.0 0.00 0.00 0.00 66 1010.2
20260505151035 58 9 16.0 18.0 0.00 0.00 0.00 65 1010.1
20260505150522 58 11 15.0 18.0 0.00 0.00 0.00 66 1010.1
20260505140513 59 13 19.0 22.0 0.00 0.00 0.00 67 1010.1
20260505125034 58 90 4.0 8.0 0.00 0.00 0.00 74 1010.5
20260505124524 58 81 5.0 9.0 0.00 0.00 0.00 75 1010.6
20260505124003 58 81 8.0 9.0 0.00 0.00 0.00 73 1010.6
20260505123556 58 51 6.0 10.0 0.00 0.00 0.00 72 1010.7
20260505123103 58 46 8.0 10.0 0.00 0.00 0.00 72 1010.6
20260505122536 58 40 7.0 10.0 0.00 0.00 0.00 74 1010.6
20260505122025 58 38 8.0 13.0 0.00 0.00 0.00 73 1010.6
20260505121516 58 32 9.0 13.0 0.00 0.00 0.00 73 1010.6
20260505121005 58 19 11.0 15.0 0.00 0.00 0.00 73 1010.6
20260505120557 58 23 12.0 15.0 0.00 0.00 0.00 74 1010.6
20260505120047 57 30 11.0 14.0 0.00 0.00 0.00 76 1010.6
20260505115535 57 38 10.0 13.0 0.00 0.00 0.00 76 1010.7
20260505115025 57 34 9.0 14.0 0.00 0.00 0.00 75 1010.8
20260505114515 57 32 12.0 16.0 0.00 0.00 0.00 75 1010.8
20260505114107 57 40 13.0 17.0 0.00 0.00 0.00 75 1011.0
20260505113548 57 32 13.0 17.0 0.00 0.00 0.00 76 1011.0
20260505113039 57 26 13.0 18.0 0.00 0.00 0.00 75 1011.0
20260505112529 57 36 15.0 19.0 0.00 0.00 0.00 75 1011.0
20260505112020 57 26 15.0 19.0 0.00 0.00 0.00 76 1010.9
20260505111506 56 27 17.0 19.0 0.00 0.00 0.00 76 1011.1
20260505111057 56 33 15.0 18.0 0.00 0.00 0.00 77 1011.0
20260505110547 56 40 15.0 18.0 0.00 0.00 0.00 76 1011.0
20260505102006 56 30 13.0 17.0 0.00 0.00 0.00 79 1011.4
20260505101558 56 39 15.0 17.0 0.00 0.00 0.00 79 1011.4
20260505101048 56 41 13.0 15.0 0.00 0.00 0.00 80 1011.5
20260505100538 56 36 14.0 15.0 0.00 0.00 0.00 80 1011.4
20260505100032 56 38 12.0 15.0 0.00 0.00 0.00 80 1011.4
20260505095515 55 36 13.0 17.0 0.00 0.00 0.00 80 1011.5
20260505095005 55 39 13.0 17.0 0.00 0.00 0.00 80 1011.5
20260505094557 55 43 14.0 17.0 0.00 0.00 0.00 80 1011.5
20260505094047 55 35 15.0 19.0 0.00 0.00 0.00 80 1011.7
20260505093526 55 26 16.0 19.0 0.00 0.00 0.00 80 1011.5
20260505093016 55 27 15.0 18.0 0.00 0.00 0.00 80 1011.5
20260505092508 55 42 14.0 17.0 0.00 0.00 0.00 80 1011.5
20260505092058 55 26 15.0 18.0 0.00 0.00 0.00 80 1011.5
20260505091547 55 40 15.0 18.0 0.00 0.00 0.00 81 1011.6
20260505091037 54 31 15.0 19.0 0.00 0.00 0.00 81 1011.6
20260505090527 54 31 16.0 19.0 0.00 0.00 0.00 81 1011.7
20260505090017 54 22 16.0 19.0 0.00 0.00 0.00 81 1011.5
20260505085507 55 40 16.0 20.0 0.00 0.00 0.00 81 1011.5
20260505085059 55 33 15.0 22.0 0.00 0.00 0.00 81 1011.6
20260505084549 55 22 17.0 21.0 0.00 0.00 0.00 81 1011.5
20260505084038 55 29 19.0 21.0 0.00 0.00 0.00 81 1011.6
20260505083517 54 24 19.0 21.0 0.00 0.00 0.00 80 1011.6
20260505083013 54 22 18.0 21.0 0.00 0.00 0.00 81 1011.5
20260505082559 54 22 18.0 21.0 0.00 0.00 0.00 80 1011.5
20260505082049 54 15 16.0 21.0 0.00 0.00 0.00 80 1011.5
20260505081546 54 28 19.0 22.0 0.00 0.00 0.00 81 1011.4
20260505081029 54 5 18.0 23.0 0.00 0.00 0.00 81 1011.5
20260505080519 54 12 20.0 23.0 0.00 0.00 0.00 81 1011.4
20260505080025 54 13 18.0 22.0 0.00 0.00 0.00 81 1011.4
20260505075557 54 5 17.0 20.0 0.00 0.00 0.00 83 1011.4
20260505075047 54 22 16.0 18.0 0.00 0.00 0.00 83 1011.4
20260505074542 54 14 16.0 18.0 0.00 0.00 0.00 83 1011.4
20260505074027 54 19 16.0 21.0 0.00 0.00 0.00 84 1011.4
20260505073506 54 14 18.0 20.0 0.00 0.00 0.00 84 1011.4
20260505073106 54 13 17.0 20.0 0.00 0.00 0.00 84 1011.3
20260505072547 53 19 17.0 19.0 0.00 0.00 0.00 84 1011.3
20260505072037 53 20 15.0 18.0 0.00 0.00 0.00 86 1011.4
20260505071534 53 24 14.0 16.0 0.00 0.00 0.00 87 1011.4
20260505071018 53 30 13.0 17.0 0.00 0.00 0.00 87 1011.4
20260505070510 53 19 14.0 17.0 0.00 0.00 0.00 88 1011.4
20260505070059 53 18 14.0 17.0 0.00 0.00 0.00 88 1011.5
20260505065549 52 13 14.0 17.0 0.00 0.00 0.00 88 1011.5
20260505065038 53 9 12.0 16.0 0.00 0.00 0.00 89 1011.5
20260505064547 52 23 13.0 16.0 0.00 0.00 0.00 89 1011.5
20260505064007 52 20 13.0 16.0 0.00 0.00 0.00 90 1011.6
20260505063550 52 22 13.0 16.0 0.00 0.00 0.00 89 1011.7
20260505063046 52 15 14.0 17.0 0.00 0.00 0.00 89 1011.7
20260505062530 52 5 15.0 17.0 0.00 0.00 0.00 89 1011.6
20260505062020 52 5 14.0 17.0 0.00 0.00 0.00 89 1011.6
20260505061514 52 12 14.0 20.0 0.00 0.00 0.00 89 1011.6
20260505061101 52 11 16.0 20.0 0.00 0.00 0.00 89 1011.6
20260505060551 52 16 16.0 18.0 0.00 0.00 0.00 89 1011.6
20260505060041 52 5 14.0 18.0 0.00 0.00 0.00 89 1011.7
20260505055531 52 14 14.0 19.0 0.00 0.00 0.00 89 1011.7
20260505055021 52 15 15.0 19.0 0.00 0.00 0.00 89 1011.6
20260505054511 53 21 16.0 19.0 0.00 0.00 0.00 90 1011.5
20260505054103 53 26 16.0 19.0 0.00 0.00 0.00 90 1011.4
20260505053541 53 24 16.0 18.0 0.00 0.00 0.00 89 1011.5
20260505053031 53 24 15.0 19.0 0.00 0.00 0.00 89 1011.5
20260505052521 53 10 16.0 19.0 0.00 0.00 0.00 89 1011.4
20260505052011 53 19 16.0 19.0 0.00 0.00 0.00 89 1011.4
20260505051502 53 29 17.0 19.0 0.00 0.00 0.00 89 1011.4
20260505051052 53 14 16.0 21.0 0.00 0.00 0.00 89 1011.4
20260505050542 53 14 18.0 21.0 0.00 0.00 0.00 89 1011.2
20260505041612 53 18 13.0 15.0 0.00 0.00 0.00 90 1011.2
20260505041044 53 9 12.0 14.0 0.00 0.00 0.00 91 1011.4
20260505040534 53 5 10.0 13.0 0.00 0.00 0.00 91 1011.4
20260505040024 53 5 10.0 13.0 0.00 0.00 0.00 91 1011.4
20260505035515 53 351 11.0 13.0 0.00 0.00 0.00 91 1011.4
20260505035003 53 5 10.0 12.0 0.00 0.00 0.00 91 1011.5
20260505034600 53 360 9.0 12.0 0.00 0.00 0.00 91 1011.6
20260505034047 53 360 10.0 12.0 0.00 0.00 0.00 91 1011.6
20260505033526 53 355 10.0 13.0 0.00 0.00 0.00 91 1011.6
20260505033017 53 22 10.0 13.0 0.00 0.00 0.00 91 1011.6
20260505032503 54 5 10.0 13.0 0.00 0.00 0.00 91 1011.7
20260505032055 54 33 11.0 13.0 0.00 0.00 0.00 91 1011.8
20260505031549 53 46 9.0 12.0 0.00 0.00 0.00 91 1011.8
20260505031032 53 53 9.0 12.0 0.00 0.00 0.00 91 1011.8
20260505030522 54 49 8.0 14.0 0.00 0.00 0.00 91 1011.8
20260505030012 54 43 10.0 12.0 0.00 0.00 0.00 91 1011.9
20260505025502 54 45 10.0 14.0 0.00 0.00 0.00 91 1011.8
20260505025056 54 42 10.0 14.0 0.00 0.00 0.00 90 1011.8
20260505024547 54 37 12.0 14.0 0.00 0.00 0.00 90 1011.8
20260505024033 54 47 10.0 14.0 0.00 0.00 0.00 90 1011.8
20260505023512 54 42 12.0 16.0 0.00 0.00 0.00 90 1011.8
20260505023002 54 46 12.0 17.0 0.00 0.00 0.00 90 1011.8
20260505022554 54 39 13.0 17.0 0.00 0.00 0.00 90 1011.7
20260505022043 54 42 14.0 16.0 0.00 0.00 0.00 89 1011.8
20260505021539 54 38 14.0 16.0 0.00 0.00 0.00 89 1011.7